When you browse on this site, cookies collect data to enhance your experience and personalize the content and advertising you see.
Visit our Privacy Policy to learn more. By continuing to use the site, you agree to this use of cookies and data.
  • In Germany
  • List of Countries
  • For 7 days
  • Water Temperature
  • Satellite Maps
  • Weather Map
  • Weather Widgets
  • user-avatar
    Login

    Hourly Weather Pune

    Today, 15 December, Saturday

    Time Temperature Precipitation Wind Pressure Humidity
    00:00 +21°C° 0 mm 2 mps 714 mmHg 58%
    01:00 +20°C° 0 mm 3 mps 713 mmHg 57%
    02:00 +20°C° 0 mm 3 mps 713 mmHg 57%
    03:00 +20°C° 0 mm 3 mps 713 mmHg 57%
    04:00 +19°C° 0 mm 3 mps 713 mmHg 57%
    05:00 +19°C° 0 mm 4 mps 713 mmHg 61%
    06:00 +20°C° 0 mm 4 mps 713 mmHg 59%
    07:00 +20°C° 0 mm 4 mps 714 mmHg 57%
    08:00 +21°C° 0 mm 4 mps 714 mmHg 56%
    09:00 +22°C° 0 mm 5 mps 714 mmHg 51%
    10:00 +25°C° 0 mm 5 mps 714 mmHg 47%
    11:00 +28°C° 0 mm 3 mps 715 mmHg 44%
    12:00 +28°C° 0 mm 3 mps 714 mmHg 41%
    13:00 +29°C° 0 mm 3 mps 713 mmHg 38%
    14:00 +30°C° 0 mm 4 mps 713 mmHg 36%
    15:00 +29°C° 0 mm 3 mps 713 mmHg 37%
    16:00 +28°C° 0 mm 3 mps 712 mmHg 39%
    17:00 +28°C° 0 mm 3 mps 712 mmHg 41%
    18:00 +27°C° 0 mm 3 mps 713 mmHg 42%
    19:00 +26°C° 0 mm 3 mps 713 mmHg 44%
    20:00 +23°C° 0 mm 4 mps 713 mmHg 46%
    21:00 +23°C° 0 mm 4 mps 713 mmHg 47%
    22:00 +23°C° 0 mm 4 mps 713 mmHg 48%
    23:00 +22°C° 0 mm 4 mps 714 mmHg 49%

    Tomorrow, 16 December, Sunday

    Time Temperature Precipitation Wind Pressure Humidity
    00:00 +22°C° 0 mm 4 mps 713 mmHg 50%
    01:00 +21°C° 0 mm 4 mps 713 mmHg 52%
    02:00 +21°C° 0 mm 4 mps 713 mmHg 54%
    03:00 +20°C° 0 mm 3 mps 713 mmHg 55%
    04:00 +20°C° 0 mm 3 mps 713 mmHg 57%
    05:00 +19°C° 0 mm 3 mps 713 mmHg 58%
    06:00 +20°C° 0 mm 3 mps 713 mmHg 56%
    07:00 +20°C° 0 mm 3 mps 714 mmHg 53%
    08:00 +21°C° 0 mm 4 mps 714 mmHg 50%
    09:00 +22°C° 0 mm 4 mps 714 mmHg 45%
    10:00 +25°C° 0 mm 4 mps 715 mmHg 40%
    11:00 +27°C° 0 mm 5 mps 715 mmHg 35%
    12:00 +27°C° 0 mm 4 mps 714 mmHg 33%
    13:00 +28°C° 0 mm 4 mps 713 mmHg 31%
    14:00 +29°C° 0 mm 4 mps 713 mmHg 29%
    15:00 +28°C° 0 mm 3 mps 713 mmHg 30%
    16:00 +27°C° 0 mm 3 mps 712 mmHg 31%
    17:00 +27°C° 0 mm 3 mps 712 mmHg 33%
    18:00 +25°C° 0 mm 3 mps 713 mmHg 33%
    19:00 +24°C° 0 mm 3 mps 713 mmHg 33%
    20:00 +22°C° 0 mm 3 mps 714 mmHg 34%
    21:00 +21°C° 0 mm 3 mps 713 mmHg 36%
    22:00 +21°C° 0 mm 3 mps 713 mmHg 37%
    23:00 +20°C° 0 mm 3 mps 713 mmHg 39%

    Day after tomorrow, 17 December, Monday

    Time Temperature Precipitation Wind Pressure Humidity
    00:00 +19°C° 0 mm 3 mps 713 mmHg 41%
    01:00 +19°C° 0 mm 3 mps 713 mmHg 44%
    02:00 +18°C° 0 mm 3 mps 712 mmHg 46%
    03:00 +18°C° 0 mm 3 mps 712 mmHg 48%
    04:00 +17°C° 0 mm 3 mps 712 mmHg 50%
    05:00 +17°C° 0 mm 2 mps 712 mmHg 52%
    06:00 +17°C° 0 mm 2 mps 713 mmHg 49%
    07:00 +18°C° 0 mm 3 mps 714 mmHg 46%
    08:00 +19°C° 0 mm 3 mps 714 mmHg 43%
    09:00 +21°C° 0 mm 3 mps 714 mmHg 39%
    10:00 +23°C° 0 mm 4 mps 714 mmHg 34%
    11:00 +26°C° 0 mm 4 mps 714 mmHg 29%
    12:00 +26°C° 0 mm 4 mps 714 mmHg 27%
    13:00 +27°C° 0 mm 4 mps 713 mmHg 25%
    14:00 +28°C° 0 mm 4 mps 712 mmHg 23%
    15:00 +27°C° 0 mm 4 mps 712 mmHg 26%
    16:00 +26°C° 0 mm 3 mps 712 mmHg 28%
    17:00 +25°C° 0 mm 3 mps 712 mmHg 31%
    18:00 +24°C° 0 mm 3 mps 712 mmHg 33%
    19:00 +22°C° 0 mm 3 mps 713 mmHg 36%
    20:00 +20°C° 0 mm 3 mps 713 mmHg 39%
    21:00 +20°C° 0 mm 3 mps 713 mmHg 44%
    22:00 +19°C° 0 mm 3 mps 713 mmHg 50%
    23:00 +19°C° 0 mm 3 mps 713 mmHg 55%

    18 December, Tuesday

    Time Temperature Precipitation Wind Pressure Humidity
    00:00 +18°C° 0 mm 3 mps 713 mmHg 60%
    01:00 +17°C° 0 mm 3 mps 713 mmHg 64%
    02:00 +17°C° 0 mm 2 mps 712 mmHg 69%
    03:00 +16°C° 0 mm 2 mps 712 mmHg 71%
    04:00 +16°C° 0 mm 2 mps 712 mmHg 74%
    05:00 +15°C° 0 mm 2 mps 712 mmHg 76%
    06:00 +16°C° 0 mm 2 mps 713 mmHg 74%
    07:00 +17°C° 0 mm 2 mps 714 mmHg 71%
    08:00 +17°C° 0 mm 3 mps 715 mmHg 69%
    09:00 +19°C° 0 mm 3 mps 715 mmHg 60%
    10:00 +21°C° 0 mm 4 mps 715 mmHg 52%
    11:00 +23°C° 0 mm 4 mps 715 mmHg 43%
    12:00 +26°C° 0 mm 4 mps 714 mmHg 39%
    13:00 +27°C° 0 mm 4 mps 713 mmHg 35%
    14:00 +28°C° 0 mm 4 mps 712 mmHg 31%
    15:00 +27°C° 0 mm 4 mps 712 mmHg 32%
    16:00 +26°C° 0 mm 3 mps 712 mmHg 34%
    17:00 +26°C° 0 mm 3 mps 712 mmHg 36%
    18:00 +24°C° 0 mm 3 mps 712 mmHg 39%
    19:00 +22°C° 0 mm 3 mps 712 mmHg 41%
    20:00 +20°C° 0 mm 3 mps 713 mmHg 44%
    21:00 +20°C° 0 mm 3 mps 713 mmHg 47%
    22:00 +19°C° 0 mm 3 mps 713 mmHg 49%
    23:00 +19°C° 0 mm 3 mps 713 mmHg 51%

    19 December, Wednesday

    Time Temperature Precipitation Wind Pressure Humidity
    00:00 +19°C° 0 mm 3 mps 712 mmHg 54%
    01:00 +18°C° 0 mm 3 mps 712 mmHg 57%
    02:00 +18°C° 0 mm 3 mps 712 mmHg 60%
    03:00 +17°C° 0 mm 3 mps 712 mmHg 63%
    04:00 +17°C° 0 mm 3 mps 712 mmHg 67%
    05:00 +16°C° 0 mm 3 mps 712 mmHg 70%
    06:00 +17°C° 0 mm 3 mps 712 mmHg 69%
    07:00 +18°C° 0 mm 3 mps 713 mmHg 69%
    08:00 +19°C° 0 mm 3 mps 714 mmHg 69%
    09:00 +21°C° 0 mm 4 mps 714 mmHg 61%
    10:00 +23°C° 0 mm 4 mps 714 mmHg 54%
    11:00 +25°C° 0 mm 5 mps 714 mmHg 47%
    12:00 +26°C° 0 mm 5 mps 714 mmHg 43%
    13:00 +28°C° 0 mm 4 mps 713 mmHg 39%
    14:00 +29°C° 0 mm 4 mps 712 mmHg 35%
    15:00 +28°C° 0 mm 4 mps 712 mmHg 36%
    16:00 +27°C° 0 mm 3 mps 712 mmHg 38%
    17:00 +27°C° 0 mm 2 mps 712 mmHg 40%
    18:00 +25°C° 0 mm 3 mps 712 mmHg 43%
    19:00 +24°C° 0 mm 3 mps 713 mmHg 46%
    20:00 +22°C° 0 mm 3 mps 713 mmHg 49%
    21:00 +21°C° 0 mm 3 mps 713 mmHg 52%
    22:00 +21°C° 0 mm 3 mps 713 mmHg 54%
    23:00 +20°C° 0 mm 3 mps 713 mmHg 56%

    20 December, Thursday

    Time Temperature Precipitation Wind Pressure Humidity
    00:00 +20°C° 0 mm 3 mps 712 mmHg 61%
    01:00 +19°C° 0 mm 3 mps 712 mmHg 65%
    02:00 +19°C° 0 mm 3 mps 712 mmHg 70%
    03:00 +19°C° 0 mm 3 mps 712 mmHg 74%
    04:00 +18°C° 0 mm 3 mps 712 mmHg 77%
    05:00 +18°C° 0 mm 2 mps 712 mmHg 81%
    06:00 +19°C° 0 mm 3 mps 712 mmHg 79%
    07:00 +19°C° 0 mm 3 mps 713 mmHg 77%
    08:00 +20°C° 0 mm 3 mps 714 mmHg 74%
    09:00 +22°C° 0 mm 3 mps 714 mmHg 66%
    10:00 +25°C° 0 mm 3 mps 714 mmHg 58%
    11:00 +27°C° 0 mm 3 mps 714 mmHg 49%
    12:00 +28°C° 0 mm 3 mps 713 mmHg 45%
    13:00 +29°C° 0 mm 2 mps 713 mmHg 40%
    14:00 +30°C° 0 mm 2 mps 712 mmHg 35%
    15:00 +29°C° 0 mm 2 mps 712 mmHg 37%
    16:00 +28°C° 0 mm 2 mps 712 mmHg 39%
    17:00 +28°C° 0 mm 2 mps 712 mmHg 41%
    18:00 +26°C° 0 mm 1 mps 712 mmHg 45%
    19:00 +25°C° 0 mm 1 mps 712 mmHg 49%
    20:00 +23°C° 0 mm 1 mps 712 mmHg 53%
    21:00 +23°C° 0 mm 1 mps 712 mmHg 55%
    22:00 +22°C° 0 mm 1 mps 712 mmHg 57%
    23:00 +21°C° 0 mm 1 mps 712 mmHg 59%
    Show more